When you browse on this site, cookies collect data to enhance your experience and personalize the content and advertising you see.
Visit our Privacy Policy to learn more. By continuing to use the site, you agree to this use of cookies and data.
  • In Austria
  • List of Countries
  • For 7 days
  • Water Temperature
  • Weather Map
  • News
  • Weather Widgets
  • user-avatar
    Login

    Hourly Weather Rjukan

    Today, 5 June, Friday

    Time Temperature Precipitation Wind Pressure Humidity
    00:00 +4°C° 0.2 mm 4 mps 659 mmHg 92%
    01:00 +4°C° 0 mm 4 mps 658 mmHg 94%
    02:00 +4°C° 0.1 mm 4 mps 658 mmHg 95%
    03:00 +2°C° 0.1 mm 5 mps 657 mmHg 96%
    04:00 +2°C° 0.1 mm 5 mps 657 mmHg 98%
    05:00 +2°C° 0.1 mm 6 mps 657 mmHg 97%
    06:00 +2°C° 0.1 mm 6 mps 656 mmHg 97%
    07:00 +2°C° 0.1 mm 7 mps 656 mmHg 96%
    08:00 +1°C° 0.5 mm 8 mps 656 mmHg 95%
    09:00 +2°C° 0.5 mm 8 mps 656 mmHg 93%
    10:00 +2°C° 0.5 mm 8 mps 656 mmHg 91%
    11:00 +2°C° 1.9 mm 8 mps 656 mmHg 93%
    12:00 +2°C° 1.9 mm 8 mps 655 mmHg 94%
    13:00 +2°C° 1.9 mm 8 mps 655 mmHg 96%
    14:00 +2°C° 3.7 mm 8 mps 655 mmHg 96%
    15:00 +2°C° 3.7 mm 7 mps 655 mmHg 97%
    16:00 +2°C° 3.7 mm 6 mps 655 mmHg 98%
    17:00 +2°C° 2.8 mm 5 mps 655 mmHg 97%
    18:00 +3°C° 2.8 mm 3 mps 656 mmHg 97%
    19:00 +5°C° 2.8 mm 1 mps 656 mmHg 97%
    20:00 +4°C° 0.2 mm 1 mps 656 mmHg 97%
    21:00 +3°C° 0.2 mm 1 mps 656 mmHg 98%
    22:00 +3°C° 0.2 mm 1 mps 656 mmHg 98%
    23:00 +2°C° 0 mm 1 mps 656 mmHg 98%

    Tomorrow, 6 June, Saturday

    Time Temperature Precipitation Wind Pressure Humidity
    00:00 +2°C° 0 mm 1 mps 656 mmHg 98%
    01:00 +2°C° 0 mm 1 mps 656 mmHg 98%
    02:00 +2°C° 0 mm 1 mps 656 mmHg 97%
    03:00 +2°C° 0 mm 1 mps 656 mmHg 96%
    04:00 +1°C° 0 mm 2 mps 655 mmHg 95%
    05:00 +2°C° 0 mm 2 mps 655 mmHg 92%
    06:00 +4°C° 0 mm 2 mps 655 mmHg 90%
    07:00 +5°C° 0 mm 2 mps 656 mmHg 87%
    08:00 +5°C° 0.3 mm 2 mps 655 mmHg 86%
    09:00 +6°C° 0.3 mm 2 mps 655 mmHg 86%
    10:00 +6°C° 0.3 mm 2 mps 655 mmHg 85%
    11:00 +5°C° 1.6 mm 2 mps 655 mmHg 88%
    12:00 +4°C° 1.6 mm 2 mps 655 mmHg 90%
    13:00 +4°C° 1.6 mm 2 mps 654 mmHg 92%
    14:00 +4°C° 0.3 mm 2 mps 654 mmHg 91%
    15:00 +5°C° 0.3 mm 2 mps 655 mmHg 89%
    16:00 +5°C° 0.3 mm 2 mps 655 mmHg 88%
    17:00 +5°C° 0 mm 2 mps 655 mmHg 87%
    18:00 +7°C° 0 mm 1 mps 655 mmHg 87%
    19:00 +7°C° 0 mm 1 mps 655 mmHg 87%
    20:00 +6°C° 0 mm 1 mps 656 mmHg 89%
    21:00 +5°C° 0 mm 1 mps 656 mmHg 91%
    22:00 +4°C° 0 mm 1 mps 656 mmHg 94%
    23:00 +4°C° 0.3 mm 1 mps 656 mmHg 94%

    Day after tomorrow, 7 June, Sunday

    Time Temperature Precipitation Wind Pressure Humidity
    00:00 +4°C° 0.3 mm 1 mps 657 mmHg 94%
    01:00 +4°C° 0.3 mm 0 mps 657 mmHg 94%
    02:00 +5°C° 0.4 mm 1 mps 658 mmHg 95%
    03:00 +5°C° 0.4 mm 1 mps 658 mmHg 95%
    04:00 +5°C° 0.4 mm 1 mps 659 mmHg 96%
    05:00 +5°C° 0.5 mm 1 mps 659 mmHg 96%
    06:00 +5°C° 0.5 mm 1 mps 660 mmHg 97%
    07:00 +5°C° 0.5 mm 1 mps 660 mmHg 97%
    08:00 +5°C° 0.7 mm 1 mps 661 mmHg 97%
    09:00 +5°C° 0.7 mm 1 mps 662 mmHg 96%
    10:00 +6°C° 0.7 mm 1 mps 662 mmHg 96%
    11:00 +6°C° 0.7 mm 1 mps 663 mmHg 95%
    12:00 +6°C° 0.7 mm 1 mps 663 mmHg 93%
    13:00 +6°C° 0.7 mm 1 mps 664 mmHg 91%
    14:00 +6°C° 0.1 mm 1 mps 664 mmHg 90%
    15:00 +7°C° 0.1 mm 1 mps 665 mmHg 88%
    16:00 +7°C° 0.1 mm 1 mps 665 mmHg 87%
    17:00 +7°C° 0.1 mm 1 mps 665 mmHg 87%
    18:00 +7°C° 0.1 mm 1 mps 665 mmHg 87%
    19:00 +7°C° 0.1 mm 1 mps 665 mmHg 87%
    20:00 +5°C° 0.1 mm 0 mps 666 mmHg 90%
    21:00 +4°C° 0.1 mm 0 mps 666 mmHg 92%
    22:00 +3°C° 0.1 mm 0 mps 666 mmHg 95%
    23:00 +2°C° 0 mm 0 mps 666 mmHg 95%

    8 June, Monday

    Time Temperature Precipitation Wind Pressure Humidity
    00:00 +2°C° 0 mm 0 mps 666 mmHg 95%
    01:00 +2°C° 0 mm 0 mps 666 mmHg 95%
    02:00 +2°C° 0 mm 0 mps 666 mmHg 94%
    03:00 +2°C° 0 mm 0 mps 666 mmHg 94%
    04:00 +2°C° 0 mm 0 mps 667 mmHg 94%
    05:00 +4°C° 0 mm 0 mps 668 mmHg 89%
    06:00 +5°C° 0 mm 0 mps 668 mmHg 84%
    07:00 +7°C° 0 mm 0 mps 669 mmHg 79%
    08:00 +9°C° 0.1 mm 1 mps 670 mmHg 74%
    09:00 +10°C° 0.1 mm 1 mps 670 mmHg 68%
    10:00 +12°C° 0.1 mm 1 mps 671 mmHg 63%
    11:00 +12°C° 0.3 mm 2 mps 671 mmHg 62%
    12:00 +13°C° 0.3 mm 2 mps 671 mmHg 60%
    13:00 +13°C° 0.3 mm 2 mps 672 mmHg 58%
    14:00 +13°C° 0.4 mm 2 mps 672 mmHg 59%
    15:00 +13°C° 0.4 mm 2 mps 672 mmHg 60%
    16:00 +13°C° 0.4 mm 2 mps 672 mmHg 61%
    17:00 +13°C° 0.4 mm 2 mps 672 mmHg 64%
    18:00 +12°C° 0.4 mm 2 mps 672 mmHg 67%
    19:00 +12°C° 0.4 mm 1 mps 672 mmHg 70%
    20:00 +10°C° 0.1 mm 1 mps 672 mmHg 76%
    21:00 +8°C° 0.1 mm 1 mps 672 mmHg 82%
    22:00 +5°C° 0.1 mm 0 mps 672 mmHg 89%
    23:00 +5°C° 0 mm 0 mps 672 mmHg 89%

    9 June, Tuesday

    Time Temperature Precipitation Wind Pressure Humidity
    00:00 +5°C° 0 mm 0 mps 672 mmHg 90%
    01:00 +4°C° 0 mm 0 mps 673 mmHg 90%
    02:00 +4°C° 0 mm 0 mps 673 mmHg 91%
    03:00 +4°C° 0 mm 0 mps 673 mmHg 92%
    04:00 +4°C° 0 mm 0 mps 673 mmHg 92%
    05:00 +6°C° 0 mm 0 mps 674 mmHg 88%
    06:00 +8°C° 0 mm 0 mps 674 mmHg 83%
    07:00 +11°C° 0 mm 1 mps 675 mmHg 79%
    08:00 +12°C° 0 mm 1 mps 676 mmHg 73%
    09:00 +13°C° 0 mm 2 mps 676 mmHg 67%
    10:00 +14°C° 0 mm 2 mps 676 mmHg 62%
    11:00 +13°C° 0.1 mm 3 mps 677 mmHg 55%
    12:00 +14°C° 0.1 mm 3 mps 677 mmHg 48%
    13:00 +16°C° 0.1 mm 3 mps 677 mmHg 42%
    14:00 +16°C° 0 mm 3 mps 677 mmHg 41%
    15:00 +16°C° 0 mm 3 mps 677 mmHg 40%
    16:00 +16°C° 0 mm 3 mps 677 mmHg 39%
    17:00 +16°C° 0 mm 3 mps 677 mmHg 41%
    18:00 +14°C° 0 mm 3 mps 677 mmHg 44%
    19:00 +14°C° 0 mm 3 mps 677 mmHg 47%
    20:00 +13°C° 0 mm 2 mps 677 mmHg 56%
    21:00 +10°C° 0 mm 1 mps 676 mmHg 65%
    22:00 +8°C° 0 mm 1 mps 676 mmHg 75%
    23:00 +7°C° 0 mm 1 mps 676 mmHg 76%

    10 June, Wednesday

    Time Temperature Precipitation Wind Pressure Humidity
    00:00 +6°C° 0 mm 0 mps 676 mmHg 77%
    01:00 +5°C° 0 mm 0 mps 676 mmHg 79%
    02:00 +5°C° 0 mm 0 mps 676 mmHg 79%
    03:00 +5°C° 0 mm 0 mps 676 mmHg 79%
    04:00 +5°C° 0 mm 0 mps 676 mmHg 79%
    05:00 +7°C° 0 mm 0 mps 676 mmHg 69%
    06:00 +9°C° 0 mm 0 mps 677 mmHg 59%
    07:00 +12°C° 0 mm 0 mps 678 mmHg 50%
    08:00 +13°C° 0 mm 0 mps 678 mmHg 45%
    09:00 +15°C° 0 mm 1 mps 678 mmHg 39%
    10:00 +16°C° 0 mm 1 mps 679 mmHg 34%
    11:00 +18°C° 0 mm 1 mps 679 mmHg 32%
    12:00 +19°C° 0 mm 1 mps 679 mmHg 31%
    13:00 +18°C° 0 mm 2 mps 679 mmHg 29%
    14:00 +19°C° 0 mm 2 mps 679 mmHg 29%
    15:00 +19°C° 0 mm 2 mps 679 mmHg 28%
    16:00 +19°C° 0 mm 2 mps 679 mmHg 28%
    17:00 +19°C° 0 mm 2 mps 679 mmHg 32%
    18:00 +18°C° 0 mm 2 mps 679 mmHg 36%
    19:00 +18°C° 0 mm 2 mps 679 mmHg 40%
    20:00 +15°C° 0 mm 2 mps 679 mmHg 51%
    21:00 +13°C° 0 mm 1 mps 678 mmHg 62%
    22:00 +10°C° 0 mm 1 mps 678 mmHg 73%
    23:00 +10°C° 0 mm 1 mps 678 mmHg 75%
    Show more